DW6386 Weather Reports


time (UTC)temp
F
wind
direction
speed
knots
gust
knots
rain 1hr
in
rain 24hr
in
rain mn
in
humidity
%
barometer
mb
20260504021512 50 81 0.0 0.0 0.00 0.00 0.00 69 1015.6
20260504020014 52 81 0.0 0.0 0.00 0.00 0.00 67 1015.6
20260504014517 52 81 0.0 0.0 0.00 0.00 0.00 65 1015.4
20260504013010 53 80 0.0 0.0 0.00 0.00 0.00 63 1015.4
20260504011510 53 75 0.0 0.0 0.00 0.00 0.00 62 1015.4
20260504010132 54 73 0.0 0.0 0.00 0.00 0.00 56 1015.4
20260504004508 56 73 0.0 0.0 0.00 0.00 0.00 54 1015.4
20260504003007 58 73 0.0 0.0 0.00 0.00 0.00 51 1015.3
20260504001507 60 72 0.0 0.0 0.00 0.00 0.00 46 1015.2
20260504000007 62 64 0.0 0.0 0.00 0.00 0.00 45 1015.1
20260503234508 62 69 0.0 0.0 0.00 0.00 0.00 44 1015.2
20260503233003 63 80 0.0 1.7 0.00 0.00 0.00 51 1015.3
20260503231502 64 65 0.0 1.7 0.00 0.00 0.00 51 1015.4
20260503230103 64 63 0.0 3.5 0.00 0.00 0.00 49 1015.6
20260503224559 65 243 0.0 2.6 0.00 0.00 0.00 49 1015.7
20260503223059 65 84 0.0 4.3 0.00 0.00 0.00 47 1015.7
20260503221557 64 58 0.0 4.3 0.00 0.00 0.00 48 1015.8
20260503220058 64 2 0.0 5.2 0.00 0.00 0.00 47 1015.9
20260503214558 64 334 0.0 5.2 0.00 0.00 0.00 48 1016.1
20260503213123 65 48 1.7 5.2 0.00 0.00 0.00 46 1016.1
20260503211617 65 40 0.0 5.2 0.00 0.00 0.00 47 1016.3
20260503210048 65 284 0.0 6.1 0.00 0.00 0.00 46 1016.4
20260503204601 66 303 0.9 3.5 0.00 0.00 0.00 45 1016.7
20260503203044 65 63 1.7 8.7 0.00 0.00 0.00 47 1016.9
20260503201540 65 70 0.9 6.1 0.00 0.00 0.00 46 1017.1
20260503200038 65 73 0.9 7.0 0.00 0.00 0.00 47 1017.5
20260503194537 64 257 0.9 6.1 0.00 0.00 0.00 46 1017.9
20260503193035 64 211 1.7 5.2 0.00 0.00 0.00 45 1018.1
20260503191544 65 32 1.7 6.1 0.00 0.00 0.00 43 1018.3
20260503190033 64 104 0.0 4.3 0.00 0.00 0.00 44 1018.6
20260503184530 64 293 3.5 7.0 0.00 0.00 0.00 41 1018.7
20260503183035 64 49 0.0 5.2 0.00 0.00 0.00 44 1018.9
20260503181523 63 46 0.0 7.0 0.00 0.00 0.00 46 1019.1
20260503180029 63 39 3.5 7.0 0.00 0.00 0.00 48 1019.3
20260503174524 63 259 0.9 4.3 0.00 0.00 0.00 45 1019.7
20260503173019 61 66 0.9 5.2 0.00 0.00 0.00 50 1019.9
20260503171519 61 107 0.9 5.2 0.00 0.00 0.00 48 1020.0
20260503090107 41 153 0.0 0.0 0.00 0.00 0.00 91 1019.0
20260503081559 43 153 0.0 0.0 0.00 0.00 0.00 90 1018.6
20260503071606 43 207 0.0 2.6 0.00 0.00 0.00 89 1017.9
20260503054553 44 105 0.0 0.0 0.00 0.00 0.00 89 1017.6
20260503053040 44 162 0.0 0.0 0.00 0.00 0.00 88 1017.5
20260503051547 44 181 0.0 0.0 0.00 0.00 0.00 87 1017.5
20260503050036 44 181 0.0 0.0 0.00 0.00 0.00 87 1017.3
20260503044534 45 181 0.0 0.0 0.00 0.00 0.00 85 1017.4
20260503043030 45 207 0.0 0.0 0.00 0.00 0.00 84 1017.3
20260503041532 46 99 0.0 0.0 0.00 0.00 0.00 83 1017.3
20260503040025 47 113 0.0 0.0 0.00 0.00 0.00 82 1017.3
20260503034524 47 121 0.0 0.0 0.00 0.00 0.00 80 1017.2
20260503033021 48 163 0.0 0.0 0.00 0.00 0.00 78 1017.0
20260503031523 49 172 0.0 1.7 0.00 0.00 0.00 76 1016.9
20260503030026 50 105 0.0 4.3 0.00 0.00 0.00 75 1016.9
20260503024520 50 134 0.0 0.9 0.00 0.00 0.00 74 1016.8
20260503023020 51 77 0.0 0.0 0.00 0.00 0.00 74 1016.9